NOAA 16 DEB, 41363

Orbit data source: Space-Track

NOAA 16 DEB, 41363 is space debris in SSO originally from a launch on Thu, 21 Sep 2000 UTC launched from the Air Force Western Test Range (AFWTR). Debris objects in space refer to the collection of defunct objects orbiting the Earth. Examples of debris include non-operational satellites, rocket bodies, and fragments generated from explosions, collisions, or faulty payload assembly.

Loading next visibility...
Identifier
41363, 2000-055JG
Orbit
SSO
Country
Flag of USUS
Related business
Manufacturer
Unknown
Mission
Spacecraft
Bus & Motor
Unknown
Mass
Unknown
Launch date (UTC)
2000-09-21 (25 years ago)
Launch vehicle
Unknown
Launch site
Air Force Western Test Range (AFWTR)
Object type
Payload
Rocket body
Debris
Shape & HBR
Unknown shape, 0.1 m
Radar Cross Section
Small (<0.1 m²)

Expand to show TLE details & history
Last TLE update: 9 hours ago

TLE from 9 hours ago
0 NOAA 16 DEB
1 41363U 00055JG  25292.27255842  .00065770  00000-0  10464-1 0  9993
2 41363  98.9136 114.4876 0013972  51.4366 308.8088 14.71615528505435
Epoch: 2025-10-19T06:32Z
TLE epoch observation values (Epoch: 2025-10-19T06:32:29.047Z)
Latitude
-0°
Longitude
-11.62503°
Altitude
652.741 km
Speed
7.535 km/s
True Right ascension
07h 37m 57s
True Declination
0° 00' 00"
Sunlit
Object was in daylight at epoch
Visualization orbit readout
Latitude
Unknown
Longitude
Unknown
Altitude
Unknown
Speed
Unknown
Apparent Right ascension
Unknown
Apparent Declination
Unknown
Sunlit
N/A
Visualization observer readout
Local Sidereal Time
10:30:19
Azimuth
Unknown
Elevation
Unknown
Doppler factor
Unknown
Orbital elements
Apogee altitude
662.839 km
Perigee altitude
643.192 km
Semi-major axis
7,031.153 km
Eccentricity
0.0014
Inclination
98.9136°
RAAN
114.4876°
Arg. of periapsis
51.4366°
True anomaly
308.6839°
Mean anomaly
308.8088°
Eccentric anomaly
308.74636°
Mean motion
3.68132 °/min
Orbital period
97.79 mins
BSTAR
0.010464
Loading maneuver chart data...
Computing Atmospheric mass density...

Documentation

Showing up to 5 results
|